TimeCDT,TemperatureF,Dew PointF,Humidity,Sea Level PressureIn,VisibilityMPH,Wind Direction,Wind SpeedMPH,Gust SpeedMPH,PrecipitationIn,Events,Conditions,WindDirDegrees,DateUTC
12:15 AM,53.6,53.6,100,29.69,3.0,Calm,Calm,-,N/A,,Clear,0,2013-05-21 05:15:00
12:35 AM,55.4,55.4,100,29.68,10.0,Calm,Calm,-,N/A,,Clear,0,2013-05-21 05:35:00
12:55 AM,55.4,55.4,100,29.67,10.0,Calm,Calm,-,N/A,,Clear,0,2013-05-21 05:55:00
1:35 AM,57.2,55.4,94,29.65,10.0,Calm,Calm,-,N/A,,Mostly Cloudy,0,2013-05-21 06:35:00
1:55 AM,59.0,57.2,94,29.64,10.0,NE,4.6,-,N/A,,Overcast,50,2013-05-21 06:55:00
2:15 AM,57.2,57.2,100,29.63,10.0,ENE,5.8,-,N/A,,Mostly Cloudy,70,2013-05-21 07:15:00
2:35 AM,59.0,57.2,94,29.63,10.0,East,5.8,-,N/A,,Mostly Cloudy,80,2013-05-21 07:35:00
2:55 AM,59.0,57.2,94,29.62,10.0,East,5.8,-,N/A,Rain,Light Rain,80,2013-05-21 07:55:00
3:15 AM,59.0,57.2,94,29.62,7.0,Calm,Calm,-,0.01,Rain,Light Rain,0,2013-05-21 08:15:00
3:35 AM,57.2,57.2,100,29.60,7.0,NE,3.5,-,0.01,,Overcast,50,2013-05-21 08:35:00
3:55 AM,57.2,57.2,100,29.61,7.0,Calm,Calm,-,0.01,Rain,Light Rain,0,2013-05-21 08:55:00
4:15 AM,57.2,57.2,100,29.64,3.0,SE,6.9,18.4,0.15,Rain,Heavy Rain,140,2013-05-21 09:15:00
4:35 AM,57.2,57.2,100,29.62,5.0,East,6.9,-,0.20,Rain,Heavy Rain,80,2013-05-21 09:35:00
4:55 AM,57.2,57.2,100,29.62,10.0,ESE,5.8,-,0.21,Rain,Light Rain,110,2013-05-21 09:55:00
5:15 AM,57.2,57.2,100,29.60,10.0,East,8.1,-,N/A,,Overcast,80,2013-05-21 10:15:00
5:35 AM,55.4,55.4,100,29.60,7.0,East,9.2,-,N/A,,Overcast,90,2013-05-21 10:35:00
5:55 AM,55.4,55.4,100,29.60,7.0,East,9.2,-,N/A,,Overcast,80,2013-05-21 10:55:00
6:15 AM,55.4,55.4,100,29.61,10.0,ESE,10.4,-,N/A,,Overcast,110,2013-05-21 11:15:00
6:35 AM,55.4,55.4,100,29.61,10.0,ESE,8.1,-,N/A,,Overcast,120,2013-05-21 11:35:00
6:55 AM,55.4,55.4,100,29.60,7.0,ESE,9.2,-,N/A,,Overcast,120,2013-05-21 11:55:00
7:15 AM,55.4,55.4,100,29.61,5.0,SE,8.1,-,N/A,,Overcast,130,2013-05-21 12:15:00
7:35 AM,55.4,55.4,100,29.61,4.0,SE,8.1,-,N/A,Rain,Light Rain,140,2013-05-21 12:35:00
7:55 AM,55.4,55.4,100,29.61,4.0,SSE,3.5,-,N/A,,Overcast,150,2013-05-21 12:55:00
8:15 AM,55.4,55.4,100,29.61,4.0,SE,5.8,-,N/A,,Light Drizzle,140,2013-05-21 13:15:00
8:35 AM,59.0,59.0,100,29.61,5.0,SSE,6.9,-,0.01,,Overcast,160,2013-05-21 13:35:00
8:55 AM,60.8,59.0,94,29.61,10.0,South,4.6,-,0.01,,Overcast,170,2013-05-21 13:55:00
9:15 AM,62.6,59.0,88,29.62,10.0,SW,3.5,-,N/A,,Mostly Cloudy,230,2013-05-21 14:15:00
9:35 AM,62.6,57.2,82,29.62,10.0,SSW,6.9,-,N/A,,Mostly Cloudy,210,2013-05-21 14:35:00
9:55 AM,64.4,55.4,73,29.62,10.0,SSW,5.8,-,N/A,,Mostly Cloudy,200,2013-05-21 14:55:00
10:15 AM,64.4,55.4,73,29.62,10.0,SSW,5.8,-,N/A,,Mostly Cloudy,200,2013-05-21 15:15:00
10:35 AM,64.4,53.6,68,29.62,10.0,SW,3.5,-,N/A,,Overcast,220,2013-05-21 15:35:00
10:55 AM,64.4,53.6,68,29.63,10.0,SSW,6.9,-,N/A,,Overcast,200,2013-05-21 15:55:00
11:15 AM,64.4,51.8,64,29.63,10.0,SSW,6.9,-,N/A,,Overcast,210,2013-05-21 16:15:00
11:35 AM,66.2,53.6,64,29.62,10.0,SW,10.4,-,N/A,,Overcast,230,2013-05-21 16:35:00
11:55 AM,66.2,51.8,60,29.62,10.0,South,4.6,-,N/A,,Overcast,190,2013-05-21 16:55:00
12:15 PM,68.0,53.6,60,29.62,10.0,South,3.5,-,N/A,,Overcast,170,2013-05-21 17:15:00
12:35 PM,66.2,53.6,64,29.61,10.0,South,4.6,-,N/A,,Overcast,190,2013-05-21 17:35:00
12:55 PM,66.2,53.6,64,29.61,10.0,SSW,3.5,-,N/A,,Overcast,200,2013-05-21 17:55:00
1:15 PM,64.4,53.6,68,29.61,10.0,South,5.8,-,N/A,Rain,Light Rain,170,2013-05-21 18:15:00
1:35 PM,62.6,55.4,77,29.62,10.0,South,5.8,-,N/A,Rain,Light Rain,170,2013-05-21 18:35:00
1:55 PM,64.4,55.4,73,29.62,10.0,South,4.6,-,N/A,Rain,Light Rain,170,2013-05-21 18:55:00
2:15 PM,62.6,55.4,77,29.62,10.0,Calm,Calm,-,N/A,Rain,Light Rain,0,2013-05-21 19:15:00
2:35 PM,66.2,55.4,68,29.62,10.0,SW,3.5,-,N/A,,Scattered Clouds,220,2013-05-21 19:35:00
2:55 PM,64.4,55.4,73,29.63,10.0,ESE,4.6,-,N/A,,Mostly Cloudy,120,2013-05-21 19:55:00
3:15 PM,64.4,57.2,77,29.63,10.0,ESE,9.2,-,N/A,,Overcast,110,2013-05-21 20:15:00
3:35 PM,68.0,55.4,64,29.62,10.0,ESE,6.9,-,N/A,,Overcast,110,2013-05-21 20:35:00
3:55 PM,68.0,55.4,64,29.62,10.0,ESE,8.1,-,N/A,,Overcast,120,2013-05-21 20:55:00
4:15 PM,66.2,55.4,68,29.62,10.0,ESE,4.6,-,N/A,,Overcast,110,2013-05-21 21:15:00
4:35 PM,66.2,53.6,64,29.62,10.0,East,3.5,-,N/A,,Overcast,100,2013-05-21 21:35:00
4:55 PM,60.8,55.4,82,29.62,3.0,North,11.5,-,0.11,Rain,Heavy Rain,350,2013-05-21 21:55:00
5:15 PM,59.0,59.0,100,29.64,2.5,ENE,5.8,-,0.21,Rain,Rain,70,2013-05-21 22:15:00
5:35 PM,60.8,60.8,100,29.65,4.0,Calm,Calm,-,0.24,Rain,Heavy Rain,0,2013-05-21 22:35:00
5:55 PM,60.8,60.8,100,29.65,3.0,Calm,Calm,-,0.27,Rain,Rain,0,2013-05-21 22:55:00
6:15 PM,60.8,60.8,100,29.66,4.0,East,3.5,-,0.02,Rain,Rain,100,2013-05-21 23:15:00
6:35 PM,59.0,59.0,100,29.67,5.0,NNE,9.2,-,0.05,Rain,Heavy Rain,30,2013-05-21 23:35:00
6:55 PM,59.0,59.0,100,29.67,7.0,North,6.9,-,0.11,Rain,Rain,360,2013-05-21 23:55:00
7:15 PM,59.0,59.0,100,29.67,10.0,North,5.8,-,0.02,Rain,Light Rain,10,2013-05-22 00:15:00
7:35 PM,57.2,57.2,100,29.67,10.0,North,6.9,-,0.02,Rain,Light Rain,360,2013-05-22 00:35:00
7:55 PM,57.2,57.2,100,29.68,10.0,North,6.9,-,0.03,Rain,Light Rain,360,2013-05-22 00:55:00
8:15 PM,55.4,55.4,100,29.69,10.0,North,6.9,-,N/A,Rain,Light Rain,360,2013-05-22 01:15:00
8:35 PM,55.4,55.4,100,29.67,10.0,North,5.8,-,N/A,,Light Drizzle,10,2013-05-22 01:35:00
8:55 PM,53.6,53.6,100,29.68,10.0,NNW,4.6,-,N/A,,Overcast,330,2013-05-22 01:55:00
9:15 PM,53.6,53.6,100,29.69,10.0,NNW,4.6,-,N/A,,Overcast,340,2013-05-22 02:15:00
9:35 PM,53.6,53.6,100,29.71,10.0,NNE,5.8,-,N/A,,Overcast,20,2013-05-22 02:35:00
9:55 PM,53.6,53.6,100,29.71,10.0,NNE,4.6,-,N/A,,Overcast,20,2013-05-22 02:55:00
10:15 PM,51.8,51.8,100,29.72,7.0,North,5.8,-,N/A,,Overcast,350,2013-05-22 03:15:00
10:35 PM,51.8,51.8,100,29.73,7.0,North,5.8,-,N/A,,Overcast,350,2013-05-22 03:35:00
10:55 PM,50.0,50.0,100,29.73,1.5,North,5.8,-,N/A,Rain,Rain,360,2013-05-22 03:55:00
11:15 PM,50.0,50.0,100,29.72,3.0,NNE,6.9,-,0.04,Rain,Rain,20,2013-05-22 04:15:00
11:35 PM,50.0,50.0,100,29.72,7.0,NNE,6.9,-,0.05,Rain,Light Rain,20,2013-05-22 04:35:00
11:55 PM,48.2,48.2,100,29.72,5.0,North,5.8,-,0.06,Rain,Rain,360,2013-05-22 04:55:00